This is the latest recevied weather packets stored in our database for station/object F1AGU-13. If no packets are shown the sender has not sent any weather packets the latest 10 day(s).
| Time | Temp. | Humidity | Pressure | Rain* | Wind** | Luminosity | Snow |
|---|---|---|---|---|---|---|---|
| 1777927517 | 8.89° C | 92% | 1013.6 hPa | 0 mm | - | - | - |
| 1777926917 | 8.89° C | 92% | 1013.7 hPa | 0 mm | - | - | - |
| 1777926317 | 8.89° C | 91% | 1013.7 hPa | 0.51 mm | - | - | - |
| 1777925717 | 8.89° C | 93% | 1013.8 hPa | 0.76 mm | - | - | - |
| 1777925117 | 8.33° C | 95% | 1013.6 hPa | 0.76 mm | - | - | - |
| 1777924517 | 8.33° C | 96% | 1013.9 hPa | 1.02 mm | - | - | - |
| 1777923917 | 8.33° C | 96% | 1014 hPa | 1.52 mm | - | - | - |
| 1777923317 | 8.33° C | 97% | 1014.3 hPa | 1.78 mm | - | - | - |
| 1777922717 | 8.33° C | 96% | 1014.3 hPa | 1.52 mm | - | - | - |
| 1777922117 | 8.89° C | 96% | 1014.4 hPa | 1.27 mm | - | - | - |
| 1777921517 | 8.89° C | 96% | 1014.4 hPa | 1.52 mm | - | - | - |
| 1777920917 | 8.89° C | 96% | 1014.6 hPa | 1.52 mm | - | - | - |
| 1777920317 | 8.89° C | 96% | 1014.6 hPa | 0.76 mm | - | - | - |
| 1777919717 | 8.89° C | 96% | 1014.4 hPa | 0.76 mm | - | - | - |
| 1777919117 | 8.89° C | 96% | 1014.5 hPa | 0.76 mm | - | - | - |
| 1777918517 | 8.89° C | 96% | 1014.5 hPa | 1.52 mm | - | - | - |
| 1777917917 | 8.89° C | 95% | 1014.4 hPa | 1.52 mm | - | - | - |
| 1777917317 | 8.89° C | 95% | 1014.5 hPa | 1.52 mm | - | - | - |
| 1777916717 | 9.44° C | 94% | 1014.4 hPa | 1.78 mm | - | - | - |
| 1777916117 | 8.89° C | 93% | 1014.5 hPa | 1.78 mm | - | - | - |
| 1777915516 | 9.44° C | 93% | 1014.4 hPa | 1.52 mm | - | - | - |
| 1777914916 | 9.44° C | 93% | 1014.6 hPa | 1.02 mm | - | - | - |
| 1777914317 | 9.44° C | 92% | 1014.8 hPa | 0.76 mm | - | - | - |
| 1777913716 | 9.44° C | 88% | 1014.7 hPa | 0.51 mm | - | - | - |
| 1777913116 | 10° C | 90% | 1014.8 hPa | 0.51 mm | - | - | - |
* Rain latest hour (hover to see other rain measurements)
** Current wind speed in m/s (hover to see current wind gust speed)